Weather History for Diyarbakir, Turkey

Change the Weather History Date:

Thursday, October 11, 2012

  Actual Average Record
Temperature  
Mean Temperature 69 °F -  
Max Temperature 81 °F 71 °F 89 °F (2003)
Min Temperature 57 °F 47 °F 45 °F (2013)
Cooling Degree Days 4    
Growing Degree Days 19 (Base 50)    
Moisture  
Dew Point 51 °F    
Average Humidity 61    
Maximum Humidity 94    
Minimum Humidity 19    
Precipitation  
Precipitation 0.00 in 0.05 in - ()
Sea Level Pressure  
Sea Level Pressure 29.90 in    
Wind  
Wind Speed 5 mph ()    
Max Wind Speed 21 mph    
Max Gust Speed -    
Visibility 6.2 miles    
Events Rain , Thunderstorm    
Averages and records for this station are not official NWS values.
T = Trace of Precipitation, MM = Missing Value Source: Averaged Metar Reports

Daily Weather History Graph

Daily Weather History Graph

Search for Another Location

Airport:

Trip Planner

Search our weather history database for the weather conditions in past years. The results will help you decide how hot, cold, wet, or windy it might be!

Date:

Astronomy

Oct. 11, 2012 Rise Set
Actual Time 6:24 AM EEST 5:47 PM EEST
Civil Twilight 5:57 AM EEST 6:13 PM EEST
Nautical Twilight 5:27 AM EEST 6:43 PM EEST
Astronomical Twilight 4:56 AM EEST 7:14 PM EEST
Moon 1:44 AM EEST (10/11) 3:07 PM EEST (10/11)
Length of Visible Light 12h 15m
Length of Day
11h 23m
Waning Crescent, 21% of the Moon is Illuminated
Oct 11
Waning Crescent
Oct 15
New
Oct 22
First Quarter
Oct 29
Full
Nov 7
Last Quarter

Hourly Weather History & Observations

Time (EEST) Temp. Dew Point Humidity Pressure Visibility Wind Dir Wind Speed Gust Speed Precip Events Conditions
12:20 AM 60.8 °F 55.4 °F 82% 29.98 in 6.2 mi NW 3.5 mph - N/A   Mostly Cloudy
12:50 AM 59.0 °F 55.4 °F 88% 29.98 in 6.2 mi West 2.3 mph - N/A   Mostly Cloudy
1:20 AM 59.0 °F 55.4 °F 88% 29.98 in 6.2 mi West 4.6 mph - N/A   Mostly Cloudy
1:50 AM 59.0 °F 53.6 °F 82% 29.98 in 6.2 mi Calm Calm - N/A   Mostly Cloudy
2:20 AM 59.0 °F 53.6 °F 82% 29.98 in 6.2 mi WSW 1.2 mph - N/A   Mostly Cloudy
2:50 AM 59.0 °F 53.6 °F 82% 29.98 in 6.2 mi Variable 2.3 mph - N/A   Mostly Cloudy
3:00 AM 59 °F 54 °F 78% 29.91 in 12 mi West 2.3 mph - -   Partly Cloudy
3:20 AM 59.0 °F 55.4 °F 88% 29.98 in 6.2 mi Calm Calm - N/A Rain Light Rain Showers
3:50 AM 59.0 °F 55.4 °F 88% 29.98 in 6.2 mi Calm Calm - N/A Rain Light Rain Showers
4:50 AM 57.2 °F 55.4 °F 94% 29.95 in 6.2 mi WNW 3.5 mph - N/A Thunderstorm Thunderstorm
5:20 AM 57.2 °F 55.4 °F 94% 29.95 in 6.2 mi Calm Calm - N/A   Mostly Cloudy
5:50 AM 57.2 °F 55.4 °F 94% 29.98 in 6.2 mi Calm Calm - N/A   Mostly Cloudy
6:20 AM 57.2 °F 55.4 °F 94% 29.95 in 6.2 mi Calm Calm - N/A   Mostly Cloudy
6:50 AM 57.2 °F 55.4 °F 94% 29.95 in 6.2 mi Calm Calm - N/A   Mostly Cloudy
7:20 AM 57.2 °F 55.4 °F 94% 29.95 in 6.2 mi West 4.6 mph - N/A   Mostly Cloudy
7:50 AM 59.0 °F 55.4 °F 88% 29.95 in 6.2 mi WNW 4.6 mph - N/A   Mostly Cloudy
8:20 AM 60.8 °F 57.2 °F 88% 29.95 in 6.2 mi West 3.5 mph - N/A   Mostly Cloudy
8:50 AM 62.6 °F 57.2 °F 82% 29.95 in 6.2 mi NNE 2.3 mph - N/A   Mostly Cloudy
9:20 AM 64.4 °F 55.4 °F 73% 29.95 in 6.2 mi ENE 4.6 mph - N/A   Mostly Cloudy
9:50 AM 64.4 °F 55.4 °F 73% 29.95 in 6.2 mi ENE 4.6 mph - N/A   Mostly Cloudy
10:20 AM 66.2 °F 57.2 °F 73% 29.95 in 6.2 mi East 5.8 mph - N/A   Mostly Cloudy
10:50 AM 68.0 °F 57.2 °F 68% 29.92 in 6.2 mi East 5.8 mph - N/A   Mostly Cloudy
11:20 AM 71.6 °F 57.2 °F 60% 29.92 in 6.2 mi East 6.9 mph - N/A   Mostly Cloudy
11:50 AM 73.4 °F 55.4 °F 53% 29.92 in 6.2 mi ENE 5.8 mph - N/A   Mostly Cloudy
12:20 PM 75.2 °F 53.6 °F 47% 29.89 in 6.2 mi East 8.1 mph - N/A   Mostly Cloudy
12:50 PM 77.0 °F 51.8 °F 41% 29.86 in 6.2 mi East 8.1 mph - N/A   Mostly Cloudy
1:20 PM 77.0 °F 50.0 °F 39% 29.86 in 6.2 mi ESE 6.9 mph - N/A   Mostly Cloudy
1:50 PM 77.0 °F 50.0 °F 39% 29.83 in 6.2 mi East 9.2 mph - N/A   Mostly Cloudy
2:20 PM 77.0 °F 44.6 °F 32% 29.83 in 6.2 mi SSE 5.8 mph - N/A   Mostly Cloudy
2:50 PM 80.6 °F 44.6 °F 28% 29.80 in 6.2 mi SSE 6.9 mph - N/A   Mostly Cloudy
3:00 PM 80 °F 45 °F 19% 29.73 in 6 mi SSE 6.9 mph - -   Partly Cloudy
3:20 PM 80.6 °F 39.2 °F 23% 29.80 in 3.7 mi South 18.4 mph - N/A   Mostly Cloudy
3:50 PM 78.8 °F 39.2 °F 24% 29.80 in 5.0 mi South 18.4 mph - N/A   Mostly Cloudy
4:20 PM 78.8 °F 41.0 °F 26% 29.80 in 6.2 mi South 13.8 mph - N/A   Mostly Cloudy
4:50 PM 78.8 °F 42.8 °F 28% 29.80 in 6.2 mi South 10.4 mph - N/A   Mostly Cloudy
5:20 PM 73.4 °F 48.2 °F 41% 29.80 in 6.2 mi West 20.7 mph - N/A   Mostly Cloudy
5:50 PM 71.6 °F 46.4 °F 41% 29.80 in 6.2 mi West 18.4 mph - N/A   Mostly Cloudy
6:20 PM 71.6 °F 46.4 °F 41% 29.83 in 6.2 mi West 18.4 mph - N/A   Mostly Cloudy
6:50 PM 71.6 °F 46.4 °F 41% 29.83 in 6.2 mi West 15.0 mph - N/A   Mostly Cloudy
7:20 PM 69.8 °F 46.4 °F 43% 29.83 in 6.2 mi WSW 11.5 mph - N/A   Mostly Cloudy
7:50 PM 68.0 °F 48.2 °F 49% 29.86 in 6.2 mi SW 6.9 mph - N/A   Mostly Cloudy
8:20 PM 68.0 °F 48.2 °F 49% 29.86 in 6.2 mi WSW 6.9 mph - N/A   Mostly Cloudy
8:50 PM 68.0 °F 48.2 °F 49% 29.86 in 6.2 mi West 9.2 mph - N/A   Mostly Cloudy
9:00 PM 68 °F 48 °F 37% 29.80 in 6 mi West 9.2 mph - -   Partly Cloudy
9:20 PM 68.0 °F 48.2 °F 49% 29.89 in 6.2 mi West 10.4 mph - N/A   Mostly Cloudy
9:50 PM 66.2 °F 48.2 °F 52% 29.89 in 6.2 mi West 9.2 mph - N/A   Scattered Clouds
10:20 PM 64.4 °F 48.2 °F 56% 29.89 in 6.2 mi SW 8.1 mph - N/A   Scattered Clouds
11:20 PM 62.6 °F 48.2 °F 59% 29.89 in - Variable 1.2 mph - N/A   Clear
11:50 PM 64.4 °F 48.2 °F 56% 29.89 in - West 2.3 mph - N/A   Clear